DW4725 Weather Reports


Display with metric or nautical units.
time (UTC)temp
F
wind
direction
speed
MPH
gust
MPH
rain 1hr
in
rain 24hr
in
rain mn
in
humidity
%
barometer
mb
20260507064400 46 252 1.0 4.0 0.00 0.48 0.05 93 1012.9
20260507064157 46 239 1.0 4.0 0.00 0.48 0.05 92 1012.9
20260507063955 46 236 1.0 3.0 0.00 0.48 0.05 93 1013.0
20260507063751 46 263 0.0 3.0 0.00 0.48 0.05 93 1012.9
20260507063547 46 234 0.0 4.0 0.00 0.48 0.05 93 1012.8
20260507063342 46 219 0.0 4.0 0.00 0.48 0.05 93 1012.9
20260507063133 46 224 0.0 4.0 0.00 0.48 0.05 93 1012.8
20260507062929 46 214 0.0 4.0 0.00 0.48 0.05 93 1012.9
20260507062416 46 214 1.0 5.0 0.00 0.48 0.05 92 1012.8
20260507061859 46 219 1.0 5.0 0.00 0.48 0.05 93 1012.8
20260507061652 46 240 1.0 5.0 0.00 0.48 0.05 93 1012.7
20260507061452 46 230 1.0 8.0 0.00 0.48 0.05 93 1012.8
20260507061244 46 231 1.0 8.0 0.00 0.48 0.05 94 1012.7
20260507061039 46 226 1.0 8.0 0.00 0.48 0.05 94 1012.6
20260507060837 46 230 2.0 8.0 0.00 0.48 0.05 94 1012.6
20260507060627 46 236 2.0 8.0 0.00 0.48 0.05 94 1012.7
20260507060419 45 240 2.0 8.0 0.00 0.48 0.05 94 1012.7
20260507055851 45 231 2.0 8.0 0.00 0.48 0.05 93 1012.6
20260507055651 45 216 2.0 8.0 0.00 0.48 0.05 94 1012.6
20260507055444 45 229 2.0 6.0 0.00 0.48 0.05 94 1012.6
20260507055237 45 238 2.0 6.0 0.00 0.48 0.05 95 1012.6
20260507055033 45 228 2.0 6.0 0.00 0.48 0.05 95 1012.6
20260507054833 45 246 2.0 6.0 0.00 0.48 0.05 96 1012.6
20260507054628 45 204 1.0 6.0 0.00 0.48 0.05 96 1012.6
20260507054428 45 245 1.0 6.0 0.00 0.48 0.05 96 1012.5
20260507054222 44 233 1.0 4.0 0.00 0.48 0.05 97 1012.6
20260507054017 44 217 1.0 4.0 0.00 0.48 0.05 97 1012.6
20260507053135 44 219 2.0 5.0 0.00 0.48 0.05 97 1012.5
20260507052254 44 236 2.0 6.0 0.00 0.48 0.05 97 1012.5
20260507051403 44 207 2.0 6.0 0.00 0.48 0.05 97 1012.4
20260507051156 44 242 3.0 6.0 0.00 0.48 0.05 96 1012.4
20260507050946 44 234 3.0 6.0 0.00 0.48 0.05 96 1012.4
20260507050742 44 238 3.0 5.0 0.00 0.48 0.05 96 1012.4
20260507050532 44 255 2.0 5.0 0.00 0.48 0.05 96 1012.2
20260507050329 44 244 2.0 5.0 0.00 0.48 0.05 95 1012.3
20260507050130 44 225 1.0 5.0 0.00 0.48 0.05 95 1012.2
20260507045927 44 219 1.0 5.0 0.00 0.48 0.05 95 1012.2
20260507045723 44 252 1.0 5.0 0.00 0.48 0.05 95 1012.3
20260507045513 44 227 1.0 5.0 0.00 0.48 0.05 94 1012.2
20260507045313 44 238 1.0 5.0 0.00 0.48 0.05 94 1012.2
20260507045115 44 246 1.0 5.0 0.00 0.48 0.05 94 1012.2
20260507044906 44 234 0.0 5.0 0.00 0.48 0.05 93 1012.2
20260507044657 45 233 0.0 5.0 0.00 0.48 0.05 93 1012.1
20260507044457 45 238 0.0 3.0 0.00 0.48 0.05 92 1012.1
20260507043616 45 254 0.0 0.0 0.00 0.48 0.05 91 1012.0
20260507043416 45 255 0.0 3.0 0.00 0.48 0.05 91 1012.0
20260507043207 45 237 0.0 3.0 0.00 0.48 0.05 90 1012.0
20260507043005 45 242 0.0 3.0 0.00 0.48 0.05 90 1012.0
20260507042802 45 217 0.0 2.0 0.00 0.48 0.05 90 1012.0
20260507042601 45 220 0.0 2.0 0.00 0.48 0.05 90 1012.0
20260507042355 45 212 0.0 1.0 0.00 0.48 0.05 90 1012.0
20260507042156 45 240 0.0 4.0 0.00 0.48 0.05 90 1012.0
20260507041952 45 240 0.0 4.0 0.00 0.48 0.05 90 1011.8
20260507041752 45 235 0.0 4.0 0.00 0.48 0.05 90 1011.9
20260507041553 45 239 1.0 4.0 0.00 0.48 0.05 90 1011.9
20260507041345 45 199 1.0 4.0 0.00 0.48 0.05 90 1011.8
20260507040817 45 224 1.0 6.0 0.00 0.48 0.05 90 1011.7
20260507040611 45 225 1.0 6.0 0.00 0.48 0.05 89 1011.7
20260507040403 45 135 1.0 6.0 0.00 0.48 0.05 90 1011.7
20260507040203 45 145 1.0 6.0 0.00 0.48 0.05 90 1011.7
20260507040003 45 209 1.0 6.0 0.00 0.48 0.05 90 1011.7
20260507035756 45 233 1.0 6.0 0.00 0.48 0.05 90 1011.7
20260507034552 45 205 0.0 4.0 0.00 0.48 0.05 91 1011.7
20260507034353 45 206 1.0 4.0 0.00 0.48 0.05 91 1011.6
20260507034146 45 188 1.0 4.0 0.00 0.48 0.05 91 1011.7
20260507033626 45 243 1.0 4.0 0.00 0.48 0.05 91 1011.7
20260507033427 45 169 1.0 4.0 0.00 0.48 0.05 91 1011.6
20260507032859 45 240 2.0 5.0 0.00 0.48 0.05 91 1011.6
20260507032651 45 207 1.0 5.0 0.00 0.48 0.05 91 1011.6
20260507032441 45 236 2.0 5.0 0.00 0.48 0.05 91 1011.5
20260507032234 45 208 2.0 7.0 0.00 0.48 0.05 91 1011.5
20260507032031 45 237 2.0 7.0 0.00 0.48 0.05 91 1011.5
20260507031823 45 219 2.0 7.0 0.00 0.48 0.05 91 1011.5
20260507031615 45 236 2.0 7.0 0.00 0.48 0.05 90 1011.4
20260507030736 45 204 2.0 7.0 0.00 0.48 0.05 91 1011.4
20260507030532 45 257 2.0 7.0 0.00 0.48 0.05 91 1011.4
20260507030325 45 204 2.0 7.0 0.00 0.48 0.05 91 1011.4
20260507030117 45 214 2.0 7.0 0.00 0.48 0.05 91 1011.5
20260507025917 45 227 2.0 7.0 0.00 0.48 0.05 91 1011.4
20260507025352 44 226 2.0 5.0 0.00 0.48 0.05 92 1011.5
20260507025147 44 245 2.0 5.0 0.00 0.48 0.05 93 1011.5
20260507024942 44 257 2.0 5.0 0.00 0.48 0.05 93 1011.5
20260507024424 44 228 2.0 5.0 0.00 0.48 0.05 93 1011.5
20260507024214 44 207 1.0 5.0 0.00 0.48 0.05 93 1011.5
20260507024009 44 247 1.0 5.0 0.00 0.48 0.05 92 1011.6
20260507023442 45 234 2.0 5.0 0.00 0.48 0.05 91 1011.6
20260507023234 45 226 2.0 5.0 0.00 0.48 0.05 91 1011.5
20260507023027 45 231 2.0 5.0 0.00 0.48 0.05 91 1011.5
20260507022821 45 254 2.0 5.0 0.00 0.48 0.05 90 1011.6
20260507022612 45 210 2.0 5.0 0.00 0.48 0.05 90 1011.5
20260507022044 45 213 2.0 6.0 0.00 0.48 0.05 91 1011.4
20260507021836 45 186 2.0 6.0 0.00 0.48 0.05 91 1011.4
20260507021634 45 219 2.0 6.0 0.00 0.48 0.05 91 1011.5
20260507021434 45 213 2.0 6.0 0.00 0.48 0.05 91 1011.5
20260507021229 45 246 2.0 6.0 0.00 0.48 0.05 91 1011.4
20260507021028 45 191 2.0 6.0 0.00 0.48 0.05 91 1011.4
20260507020826 45 197 2.0 6.0 0.00 0.48 0.05 91 1011.4
20260507020624 45 247 2.0 6.0 0.00 0.48 0.05 91 1011.4
20260507020420 45 217 2.0 6.0 0.00 0.48 0.05 92 1011.4
20260507020214 44 196 2.0 6.0 0.00 0.48 0.05 92 1011.4
20260507020011 44 237 2.0 7.0 0.00 0.48 0.05 93 1011.4
20260507015802 44 203 2.0 7.0 0.00 0.48 0.05 93 1011.4
20260507015600 44 240 2.0 7.0 0.00 0.48 0.05 94 1011.3
20260507015354 44 205 2.0 7.0 0.00 0.48 0.05 94 1011.4
20260507015152 44 222 1.0 7.0 0.00 0.48 0.05 95 1011.3
20260507014948 44 226 1.0 7.0 0.00 0.48 0.05 95 1011.4
20260507014746 44 217 1.0 7.0 0.00 0.48 0.05 95 1011.3
20260507014221 44 205 2.0 7.0 0.00 0.48 0.05 96 1011.3
20260507014015 44 338 2.0 7.0 0.00 0.48 0.05 96 1011.3
20260507013809 44 205 2.0 7.0 0.00 0.48 0.05 96 1011.2
20260507013237 44 169 2.0 7.0 0.00 0.48 0.05 96 1011.2
20260507012354 44 227 2.0 6.0 0.00 0.48 0.05 96 1011.1
20260507012148 43 236 2.0 6.0 0.00 0.48 0.05 96 1011.1
20260507011943 43 264 2.0 6.0 0.00 0.48 0.05 96 1011.1
20260507011419 43 193 2.0 5.0 0.00 0.48 0.05 96 1011.1
20260507011003 43 178 1.0 5.0 0.00 0.48 0.05 97 1011.0
20260507010758 43 224 1.0 5.0 0.00 0.48 0.05 97 1011.2
20260507010554 43 221 1.0 5.0 0.00 0.48 0.05 97 1011.1
20260507010344 43 216 1.0 7.0 0.00 0.48 0.05 97 1011.2
20260507005813 43 281 2.0 7.0 0.00 0.48 0.05 97 1011.2
20260507005613 43 217 2.0 7.0 0.00 0.48 0.05 97 1011.3
20260507005049 43 221 2.0 8.0 0.00 0.48 0.05 97 1011.2
20260507004848 43 207 2.0 8.0 0.00 0.48 0.05 97 1011.2
20260507004330 43 210 2.0 8.0 0.00 0.48 0.05 97 1011.2
20260507004123 43 230 2.0 8.0 0.00 0.48 0.05 97 1011.3
20260507003923 43 206 2.0 8.0 0.00 0.48 0.05 97 1011.3
20260507003718 43 212 2.0 8.0 0.00 0.48 0.05 97 1011.2
20260507003159 43 235 1.0 8.0 0.00 0.48 0.05 97 1011.2
20260507002955 43 229 1.0 8.0 0.00 0.48 0.05 97 1011.2
20260507002752 43 210 2.0 8.0 0.00 0.48 0.05 97 1011.2
20260507002233 43 229 2.0 8.0 0.00 0.48 0.05 97 1011.2
20260507001718 43 241 3.0 8.0 0.00 0.48 0.05 97 1011.2
20260507001512 43 219 3.0 8.0 0.00 0.48 0.05 97 1011.2
20260507001313 43 229 3.0 8.0 0.00 0.48 0.04 97 1011.2
20260507000742 43 190 2.0 8.0 0.00 0.48 0.04 97 1011.2
20260507000539 43 243 2.0 8.0 0.00 0.48 0.04 97 1011.3
20260507000339 43 214 2.0 8.0 0.00 0.48 0.04 97 1011.3
20260507000138 43 224 1.0 8.0 0.00 0.48 0.04 97 1011.3
20260506235928 43 131 1.0 7.0 0.00 0.48 0.04 97 1011.2
20260506235723 43 233 1.0 5.0 0.00 0.48 0.04 97 1011.2
20260506235515 43 256 1.0 6.0 0.00 0.48 0.04 97 1011.3
20260506235307 43 226 2.0 6.0 0.00 0.48 0.04 97 1011.3
20260506235102 44 226 2.0 6.0 0.00 0.48 0.04 97 1011.3
20260506234853 44 205 2.0 6.0 0.00 0.48 0.04 97 1011.3
20260506234650 44 208 2.0 9.0 0.00 0.48 0.04 97 1011.3
20260506234448 44 258 2.0 9.0 0.00 0.48 0.04 97 1011.2
20260506234246 44 179 3.0 9.0 0.00 0.48 0.04 97 1011.3
20260506234041 44 259 3.0 9.0 0.00 0.48 0.04 97 1011.3
20260506233516 44 233 3.0 10.0 0.00 0.48 0.04 97 1011.3
20260506233311 44 227 3.0 10.0 0.00 0.48 0.04 97 1011.3
20260506232431 44 220 4.0 10.0 0.00 0.48 0.04 97 1011.4
20260506232222 44 263 4.0 10.0 0.00 0.48 0.04 97 1011.3
20260506232015 44 205 4.0 10.0 0.00 0.48 0.04 97 1011.3
20260506231816 44 241 4.0 10.0 0.00 0.48 0.04 97 1011.3
20260506231613 44 224 4.0 7.0 0.00 0.48 0.04 97 1011.3
20260506231405 44 237 3.0 7.0 0.00 0.48 0.04 97 1011.3
20260506231202 44 249 3.0 6.0 0.00 0.48 0.04 97 1011.3
20260506231001 44 242 2.0 5.0 0.00 0.48 0.04 97 1011.4
20260506230433 44 244 1.0 5.0 0.00 0.48 0.04 97 1011.3
20260506225907 44 245 0.0 5.0 0.00 0.48 0.04 97 1011.2
20260506225706 44 233 0.0 5.0 0.00 0.48 0.04 97 1011.3
20260506225458 44 230 0.0 4.0 0.00 0.48 0.04 97 1011.3
20260506225257 44 241 0.0 3.0 0.00 0.48 0.04 97 1011.2
20260506224049 44 202 0.0 3.0 0.00 0.48 0.04 96 1011.3
20260506223844 44 146 0.0 3.0 0.00 0.48 0.04 96 1011.2
20260506223640 44 205 0.0 3.0 0.00 0.48 0.04 96 1011.2
20260506222754 44 223 0.0 5.0 0.05 0.48 0.04 96 1011.2
20260506222219 44 212 0.0 5.0 0.14 0.48 0.04 96 1011.2
20260506221701 44 229 2.0 8.0 0.03 0.46 0.03 95 1011.2
20260506221500 44 212 1.0 8.0 0.03 0.46 0.03 95 1011.2
20260506221252 44 236 1.0 8.0 0.04 0.46 0.03 95 1011.1
20260506220717 44 243 2.0 8.0 0.10 0.43 0.03 95 1011.2
20260506220517 44 239 2.0 8.0 0.18 0.43 0.03 95 1011.3
20260506220307 44 224 3.0 8.0 0.55 0.43 0.03 96 1011.3
20260506220058 45 229 2.0 8.0 0.60 0.43 0.00 96 1011.4
20260506215852 45 240 2.0 6.0 0.00 0.42 0.42 96 1011.4
20260506215642 45 240 2.0 6.0 0.00 0.42 0.42 96 1011.4
20260506215125 45 238 2.0 6.0 0.00 0.42 0.42 96 1011.3
20260506214921 45 252 2.0 6.0 0.00 0.42 0.42 96 1011.3
20260506214711 45 236 2.0 6.0 0.00 0.42 0.42 96 1011.2
20260506214504 45 238 1.0 5.0 0.00 0.42 0.42 96 1011.2
20260506213937 45 245 2.0 5.0 0.00 0.42 0.42 96 1011.2
20260506213735 45 246 2.0 5.0 0.00 0.42 0.42 96 1011.2
20260506213532 45 229 2.0 5.0 0.00 0.42 0.42 96 1011.3
20260506213332 45 243 2.0 5.0 0.00 0.42 0.42 96 1011.3
20260506213130 45 238 2.0 5.0 0.00 0.42 0.42 96 1011.2
20260506212930 45 238 2.0 5.0 0.00 0.42 0.42 96 1011.2
20260506212719 45 236 2.0 5.0 0.00 0.42 0.42 96 1011.2
20260506212509 45 234 2.0 7.0 0.00 0.42 0.42 96 1011.2
20260506212308 45 236 2.0 7.0 0.00 0.42 0.42 96 1011.1
20260506212058 45 241 2.0 7.0 0.00 0.42 0.42 96 1011.0
20260506211532 45 241 3.0 7.0 0.00 0.42 0.42 95 1011.1
20260506211330 45 239 3.0 7.0 0.00 0.42 0.42 95 1011.2
20260506211128 45 240 3.0 7.0 0.00 0.42 0.42 95 1011.0
20260506210925 45 242 3.0 7.0 0.00 0.42 0.42 95 1011.1
20260506210718 45 246 3.0 7.0 0.00 0.42 0.42 95 1011.0
20260506210509 46 238 2.0 6.0 0.00 0.42 0.42 95 1011.0
20260506210307 46 236 2.0 6.0 0.00 0.42 0.42 95 1011.0
20260506205736 46 242 2.0 5.0 0.00 0.42 0.42 96 1011.1
20260506205537 45 236 2.0 5.0 0.00 0.42 0.42 96 1011.1
20260506205013 45 232 2.0 4.0 0.00 0.42 0.42 96 1011.0
20260506204804 45 230 1.0 4.0 0.00 0.42 0.42 96 1011.1
20260506204558 45 238 1.0 4.0 0.00 0.42 0.42 96 1011.0
20260506204356 45 250 1.0 4.0 0.00 0.42 0.42 96 1010.9
20260506204147 45 224 1.0 3.0 0.00 0.42 0.42 96 1011.0
20260506203937 45 236 1.0 3.0 0.00 0.42 0.42 96 1010.8
20260506203734 45 234 0.0 3.0 0.00 0.42 0.42 96 1010.9
20260506203526 45 241 0.0 4.0 0.00 0.42 0.42 96 1010.8
20260506203325 45 240 1.0 4.0 0.00 0.42 0.42 96 1010.7
20260506203115 45 241 1.0 4.0 0.00 0.42 0.42 96 1010.7
20260506202915 45 221 1.0 4.0 0.00 0.42 0.42 96 1010.7
20260506202710 45 233 1.0 4.0 0.00 0.42 0.42 96 1010.6
20260506202502 45 236 1.0 6.0 0.00 0.42 0.42 96 1010.6
20260506202255 44 238 1.0 6.0 0.00 0.42 0.42 95 1010.6
20260506202045 44 231 1.0 6.0 0.00 0.42 0.42 95 1010.6
20260506201525 44 264 2.0 6.0 0.00 0.42 0.42 95 1010.6
20260506201320 44 240 2.0 6.0 0.00 0.42 0.42 95 1010.6
20260506201119 44 246 3.0 6.0 0.00 0.42 0.42 95 1010.6
20260506200911 44 241 2.0 6.0 0.00 0.42 0.42 94 1010.6
20260506200356 44 240 1.0 6.0 0.00 0.42 0.42 94 1010.5
20260506200149 44 265 1.0 6.0 0.00 0.42 0.42 94 1010.6
20260506195622 44 224 1.0 6.0 0.00 0.42 0.42 94 1010.5
20260506195423 44 226 1.0 5.0 0.00 0.42 0.42 94 1010.5
20260506195222 44 233 2.0 5.0 0.00 0.42 0.42 94 1010.5
20260506195023 44 232 2.0 5.0 0.00 0.42 0.42 94 1010.5
20260506194816 44 247 1.0 5.0 0.00 0.42 0.42 94 1010.4
20260506194614 44 240 1.0 5.0 0.00 0.42 0.42 94 1010.4
20260506194408 44 237 1.0 5.0 0.00 0.42 0.42 93 1010.4
20260506194201 44 235 1.0 5.0 0.00 0.42 0.42 93 1010.4
20260506193638 45 226 1.0 5.0 0.00 0.42 0.42 93 1010.3
20260506193435 45 233 1.0 5.0 0.00 0.42 0.42 93 1010.2
20260506193229 45 212 1.0 5.0 0.00 0.42 0.42 93 1010.3
20260506193021 45 236 1.0 5.0 0.00 0.42 0.42 93 1010.3
20260506192820 45 226 1.0 5.0 0.00 0.42 0.42 92 1010.3
20260506192254 45 235 1.0 5.0 0.00 0.42 0.42 92 1010.1
20260506192053 45 217 1.0 5.0 0.00 0.42 0.42 92 1010.1
20260506191842 45 229 1.0 4.0 0.00 0.42 0.42 92 1010.1
20260506191318 45 208 1.0 6.0 0.00 0.42 0.42 92 1009.9
20260506190747 45 223 1.0 6.0 0.00 0.42 0.42 92 1009.8
20260506190537 45 115 1.0 6.0 0.00 0.42 0.42 92 1009.8
20260506190328 45 207 2.0 6.0 0.00 0.42 0.42 92 1009.7
20260506190124 45 212 1.0 6.0 0.00 0.42 0.42 92 1009.7
20260506185916 45 200 1.0 6.0 0.00 0.42 0.42 92 1009.8
20260506185715 45 200 1.0 5.0 0.00 0.42 0.42 92 1009.7
20260506185509 45 221 1.0 5.0 0.00 0.42 0.42 92 1009.8
20260506185306 45 208 1.0 5.0 0.00 0.42 0.42 92 1009.7
20260506185058 45 229 1.0 5.0 0.00 0.42 0.42 92 1009.8
20260506184850 46 205 1.0 5.0 0.00 0.42 0.42 92 1009.7
20260506184648 46 194 1.0 5.0 0.00 0.42 0.42 92 1009.7
20260506184442 46 218 1.0 5.0 0.00 0.42 0.42 92 1009.7
20260506184232 46 228 1.0 5.0 0.00 0.42 0.42 91 1009.7
20260506184030 46 217 1.0 5.0 0.00 0.42 0.42 91 1009.6
20260506183826 46 83 1.0 5.0 0.00 0.42 0.42 91 1009.7
20260506183616 46 200 1.0 5.0 0.00 0.42 0.42 91 1009.8
20260506183417 46 205 1.0 5.0 0.00 0.42 0.42 91 1009.7
20260506183208 46 185 1.0 4.0 0.00 0.42 0.42 91 1009.7
20260506182959 46 236 1.0 3.0 0.00 0.42 0.42 91 1009.8
20260506182754 46 229 0.0 6.0 0.00 0.42 0.42 91 1009.8
20260506182548 46 228 1.0 6.0 0.00 0.42 0.42 91 1009.8
20260506182344 46 224 1.0 6.0 0.00 0.42 0.42 90 1009.7
20260506182136 46 223 1.0 6.0 0.00 0.42 0.42 90 1009.7
20260506181930 46 228 1.0 6.0 0.00 0.42 0.42 90 1009.7
20260506181728 47 229 2.0 6.0 0.00 0.42 0.42 90 1009.7
20260506181158 47 221 2.0 6.0 0.00 0.42 0.42 90 1009.7
20260506180952 47 242 2.0 6.0 0.00 0.42 0.42 89 1009.7
20260506180745 47 231 2.0 5.0 0.00 0.43 0.42 89 1009.7
20260506180539 47 232 1.0 5.0 0.00 0.43 0.42 89 1009.6
20260506180333 47 228 1.0 5.0 0.00 0.43 0.42 89 1009.7
20260506180123 47 225 1.0 6.0 0.00 0.43 0.42 89 1009.7
20260506175556 47 231 2.0 6.0 0.00 0.43 0.42 89 1009.6
20260506175354 47 212 2.0 6.0 0.00 0.43 0.42 89 1009.5
20260506175152 47 221 2.0 6.0 0.00 0.43 0.42 88 1009.6
20260506174947 47 243 2.0 6.0 0.00 0.43 0.42 89 1009.6
20260506174741 47 229 2.0 6.0 0.00 0.43 0.42 88 1009.6
20260506174531 47 231 1.0 6.0 0.00 0.43 0.42 88 1009.5
20260506174325 47 240 1.0 5.0 0.00 0.43 0.42 89 1009.5
20260506174125 47 238 1.0 4.0 0.00 0.43 0.42 89 1009.5
20260506173915 47 236 0.0 4.0 0.00 0.43 0.42 90 1009.5
20260506173351 47 228 0.0 4.0 0.00 0.43 0.42 89 1009.5
20260506173148 47 234 1.0 4.0 0.00 0.43 0.42 89 1009.4
20260506172942 47 230 1.0 4.0 0.00 0.43 0.42 89 1009.4
20260506172737 47 216 1.0 4.0 0.00 0.43 0.42 88 1009.3
20260506172528 47 232 1.0 8.0 0.00 0.43 0.42 88 1009.4
20260506172322 47 226 1.0 8.0 0.00 0.43 0.42 88 1009.3
20260506172120 47 236 1.0 8.0 0.00 0.43 0.42 88 1009.3
20260506171918 47 250 1.0 8.0 0.00 0.43 0.42 88 1009.3
20260506171712 47 238 2.0 8.0 0.00 0.43 0.42 88 1009.2
20260506171507 47 239 3.0 11.0 0.00 0.43 0.42 87 1009.2
20260506170942 47 262 3.0 11.0 0.00 0.43 0.42 87 1009.2
20260506170743 47 244 4.0 11.0 0.00 0.43 0.42 87 1009.0
20260506170534 47 248 5.0 11.0 0.00 0.43 0.42 87 1009.1
20260506170335 47 255 6.0 11.0 0.00 0.44 0.42 86 1009.0
20260506170128 47 233 6.0 11.0 0.00 0.44 0.42 86 1009.1
20260506165922 48 238 6.0 11.0 0.00 0.44 0.42 85 1009.1
20260506165711 48 229 5.0 11.0 0.00 0.44 0.42 85 1009.1
20260506165503 48 209 4.0 10.0 0.00 0.44 0.42 85 1009.2
20260506165253 48 236 4.0 10.0 0.00 0.44 0.42 86 1009.1
20260506165049 48 248 4.0 10.0 0.00 0.44 0.42 88 1009.2
20260506164847 48 256 4.0 10.0 0.00 0.44 0.42 88 1009.2
20260506164644 48 242 4.0 10.0 0.00 0.44 0.42 87 1009.2
20260506164435 48 249 3.0 9.0 0.00 0.44 0.42 87 1009.2
20260506164230 48 245 3.0 9.0 0.00 0.44 0.42 87 1009.1
20260506164027 48 212 3.0 7.0 0.00 0.44 0.42 87 1009.2
20260506163822 48 241 2.0 11.0 0.00 0.44 0.42 87 1009.2
20260506163616 48 264 2.0 11.0 0.00 0.44 0.42 88 1009.2
20260506163052 48 238 4.0 11.0 0.00 0.44 0.42 89 1009.2
20260506162850 47 235 4.0 11.0 0.00 0.44 0.42 88 1009.3
20260506162643 47 241 5.0 11.0 0.00 0.44 0.42 88 1009.2
20260506162442 48 234 5.0 11.0 0.00 0.44 0.42 88 1009.2
20260506162235 48 258 5.0 11.0 0.00 0.44 0.42 87 1009.2
20260506162030 48 235 4.0 11.0 0.00 0.44 0.42 87 1009.2
20260506161828 48 240 3.0 10.0 0.00 0.44 0.42 88 1009.3
20260506161629 48 268 3.0 10.0 0.00 0.44 0.42 87 1009.2
20260506161423 48 254 3.0 7.0 0.00 0.44 0.42 88 1009.3
20260506160855 48 203 3.0 10.0 0.00 0.44 0.42 88 1009.4
20260506160327 48 226 4.0 10.0 0.00 0.44 0.42 89 1009.3
20260506160125 48 228 4.0 11.0 0.00 0.44 0.42 89 1009.3
20260506155920 48 255 4.0 11.0 0.00 0.44 0.42 89 1009.3
20260506155714 48 239 5.0 11.0 0.00 0.44 0.42 88 1009.4
20260506155515 48 236 5.0 11.0 0.00 0.44 0.42 88 1009.3
20260506155309 48 222 5.0 11.0 0.00 0.44 0.42 88 1009.3
20260506155108 48 203 5.0 11.0 0.00 0.44 0.42 88 1009.3
20260506154902 48 229 5.0 11.0 0.00 0.44 0.42 88 1009.3
20260506154701 48 226 5.0 11.0 0.00 0.44 0.42 88 1009.3
20260506154458 48 247 5.0 11.0 0.00 0.44 0.42 89 1009.2
20260506154248 48 254 5.0 11.0 0.00 0.44 0.42 88 1009.2
20260506154046 48 237 4.0 10.0 0.00 0.44 0.42 90 1009.2
20260506153845 48 251 5.0 10.0 0.00 0.44 0.42 90 1009.2
20260506153638 48 245 5.0 10.0 0.00 0.44 0.42 90 1009.3
20260506153430 48 249 5.0 10.0 0.00 0.44 0.42 90 1009.3
20260506152908 48 273 4.0 10.0 0.00 0.44 0.42 90 1009.3
20260506152702 48 229 3.0 7.0 0.00 0.44 0.42 89 1009.3
20260506152453 48 234 2.0 6.0 0.00 0.44 0.42 89 1009.3
20260506151928 48 238 3.0 10.0 0.00 0.44 0.42 90 1009.3
20260506151718 48 236 3.0 10.0 0.00 0.44 0.42 89 1009.3
20260506151517 48 276 3.0 10.0 0.00 0.44 0.42 88 1009.2
20260506151311 49 233 4.0 14.0 0.00 0.44 0.42 88 1009.2
20260506151100 49 252 4.0 14.0 0.00 0.44 0.42 87 1009.1
20260506150545 50 276 4.0 14.0 0.00 0.44 0.42 89 1009.2
20260506150340 50 255 4.0 14.0 0.00 0.44 0.42 88 1009.2
20260506150133 50 252 5.0 14.0 0.00 0.44 0.42 88 1009.2
20260506145932 50 247 5.0 14.0 0.00 0.44 0.42 89 1009.2
20260506145723 49 257 5.0 14.0 0.00 0.44 0.42 89 1009.3
20260506145515 49 229 5.0 14.0 0.00 0.44 0.42 85 1009.2
20260506144944 49 250 4.0 11.0 0.00 0.44 0.42 89 1009.1
20260506144733 49 243 5.0 12.0 0.00 0.44 0.42 88 1009.1
20260506144523 49 233 6.0 12.0 0.00 0.44 0.42 88 1009.1
20260506144322 49 248 6.0 12.0 0.00 0.44 0.42 88 1009.2
20260506144116 49 220 6.0 12.0 0.00 0.44 0.42 88 1009.2
20260506143917 49 275 7.0 12.0 0.00 0.44 0.42 89 1009.2
20260506143351 49 230 7.0 15.0 0.00 0.44 0.42 92 1009.1
20260506143152 48 249 8.0 15.0 0.00 0.44 0.42 91 1009.1
20260506142949 48 222 7.0 15.0 0.00 0.44 0.42 91 1009.1
20260506142744 48 236 8.0 15.0 0.00 0.44 0.42 92 1009.1
20260506142545 48 233 8.0 15.0 0.00 0.44 0.42 91 1009.1
20260506142346 48 254 8.0 15.0 0.00 0.44 0.42 89 1009.1
20260506142141 49 232 8.0 15.0 0.00 0.44 0.42 92 1009.1
20260506141608 48 243 8.0 15.0 0.00 0.44 0.42 92 1009.1
20260506141400 48 224 7.0 15.0 0.00 0.44 0.42 93 1009.0
20260506141152 47 284 7.0 15.0 0.00 0.44 0.42 92 1009.1
20260506140951 47 229 7.0 15.0 0.00 0.44 0.42 94 1009.2
20260506140427 47 238 8.0 15.0 0.00 0.44 0.42 93 1009.1
20260506140222 47 240 8.0 15.0 0.00 0.44 0.42 93 1009.2
20260506135658 46 268 7.0 18.0 0.00 0.44 0.42 93 1009.2
20260506135454 46 247 7.0 18.0 0.00 0.44 0.42 93 1009.2
20260506135251 46 205 7.0 18.0 0.00 0.44 0.42 94 1009.2
20260506135046 46 244 7.0 18.0 0.00 0.44 0.42 94 1009.2
20260506134844 46 241 7.0 18.0 0.00 0.44 0.42 95 1009.2
20260506134638 46 238 7.0 18.0 0.00 0.44 0.42 95 1009.2
20260506134435 46 237 7.0 18.0 0.00 0.44 0.42 95 1009.1
20260506134228 46 240 7.0 18.0 0.00 0.44 0.42 96 1009.2
20260506134018 46 249 8.0 18.0 0.00 0.44 0.42 95 1009.1
20260506133818 46 223 8.0 18.0 0.00 0.44 0.42 95 1009.1
20260506133617 46 237 8.0 15.0 0.00 0.44 0.42 96 1009.2
20260506133407 46 237 8.0 15.0 0.00 0.44 0.42 96 1009.1
20260506133203 45 264 8.0 15.0 0.00 0.44 0.42 96 1009.2
20260506132958 45 231 8.0 15.0 0.00 0.44 0.42 97 1009.2
20260506132750 45 255 7.0 15.0 0.00 0.44 0.42 97 1009.2
20260506132543 45 226 7.0 15.0 0.00 0.44 0.42 97 1009.1
20260506132340 45 225 7.0 15.0 0.00 0.44 0.42 97 1009.1
20260506132131 45 226 7.0 15.0 0.00 0.44 0.42 97 1009.2
20260506131923 45 242 7.0 15.0 0.00 0.45 0.42 97 1009.0
20260506131725 45 242 7.0 15.0 0.00 0.46 0.42 97 1009.1
20260506131523 45 235 7.0 15.0 0.00 0.46 0.42 97 1009.0
20260506131318 45 225 7.0 15.0 0.00 0.46 0.42 97 1009.1
20260506131112 45 228 7.0 15.0 0.00 0.46 0.42 96 1009.0
20260506130910 45 215 7.0 15.0 0.00 0.46 0.42 96 1009.0
20260506130705 45 238 6.0 15.0 0.00 0.46 0.42 96 1008.9
20260506130457 45 229 7.0 15.0 0.00 0.46 0.42 96 1009.0
20260506130250 45 231 7.0 15.0 0.00 0.46 0.42 96 1009.0
20260506130046 45 247 7.0 15.0 0.00 0.46 0.42 96 1008.9
20260506125529 45 238 7.0 16.0 0.00 0.46 0.42 96 1008.8
20260506125320 45 242 6.0 16.0 0.00 0.46 0.42 96 1008.9
20260506125118 45 261 6.0 16.0 0.00 0.46 0.42 96 1008.9
20260506124912 45 236 6.0 16.0 0.00 0.46 0.42 96 1008.8
20260506124355 45 234 5.0 16.0 0.00 0.46 0.42 97 1008.9
20260506123829 45 268 4.0 16.0 0.00 0.47 0.42 96 1008.8
20260506123622 45 236 3.0 11.0 0.00 0.47 0.42 96 1008.8
20260506123418 45 241 3.0 11.0 0.00 0.47 0.42 96 1008.7
20260506123219 45 283 4.0 11.0 0.00 0.47 0.42 96 1008.8
20260506123018 45 279 4.0 11.0 0.00 0.47 0.42 96 1008.7
20260506122812 45 271 4.0 11.0 0.00 0.47 0.42 96 1008.7
20260506122245 45 271 3.0 11.0 0.00 0.47 0.42 96 1008.5
20260506122043 45 316 3.0 11.0 0.00 0.47 0.42 96 1008.6
20260506121838 45 226 3.0 11.0 0.00 0.47 0.42 96 1008.4
20260506121633 45 231 3.0 11.0 0.00 0.47 0.42 96 1008.4
20260506121427 45 283 4.0 11.0 0.00 0.47 0.42 95 1008.5
20260506121218 45 254 4.0 11.0 0.00 0.47 0.42 95 1008.4
20260506121009 45 271 4.0 11.0 0.00 0.47 0.42 95 1008.5
20260506120809 45 261 4.0 11.0 0.00 0.47 0.42 95 1008.5
20260506120602 45 235 4.0 11.0 0.00 0.47 0.42 95 1008.4
20260506120352 45 237 3.0 11.0 0.00 0.48 0.42 94 1008.4
20260506120148 46 257 2.0 10.0 0.00 0.48 0.42 95 1008.4
20260506115945 46 285 3.0 10.0 0.00 0.48 0.42 95 1008.4
20260506115419 46 259 3.0 10.0 0.00 0.48 0.42 95 1008.3
20260506115215 46 283 3.0 10.0 0.00 0.48 0.42 94 1008.3
20260506115013 46 238 3.0 8.0 0.00 0.48 0.42 94 1008.4
20260506114811 46 305 3.0 9.0 0.00 0.48 0.42 94 1008.3
20260506114605 46 237 3.0 9.0 0.00 0.48 0.42 94 1008.3
20260506114357 46 269 3.0 9.0 0.00 0.48 0.42 95 1008.3
20260506114151 46 253 3.0 9.0 0.00 0.49 0.42 94 1008.4
20260506113941 46 250 3.0 9.0 0.00 0.49 0.42 94 1008.4
20260506113732 46 249 2.0 10.0 0.00 0.49 0.42 94 1008.3
20260506113534 46 302 3.0 10.0 0.00 0.49 0.42 94 1008.2
20260506113017 46 250 3.0 10.0 0.00 0.49 0.42 94 1008.2
20260506112811 46 255 4.0 10.0 0.00 0.49 0.42 94 1008.1
20260506112602 46 243 4.0 10.0 0.00 0.49 0.42 95 1008.2
20260506112359 46 244 4.0 10.0 0.00 0.49 0.42 95 1008.2
20260506112157 46 214 4.0 10.0 0.00 0.49 0.42 95 1008.1
20260506111951 46 283 3.0 10.0 0.00 0.49 0.42 94 1008.1
20260506111743 46 252 3.0 10.0 0.00 0.49 0.42 96 1008.1
20260506111211 45 250 3.0 13.0 0.00 0.49 0.42 97 1008.1
20260506111010 45 230 3.0 13.0 0.00 0.49 0.42 97 1008.1
20260506110808 45 278 4.0 13.0 0.00 0.49 0.42 98 1008.1
20260506110602 45 244 4.0 13.0 0.00 0.49 0.42 98 1008.2
20260506110357 45 241 5.0 13.0 0.00 0.49 0.42 98 1008.2
20260506110157 44 257 6.0 13.0 0.00 0.49 0.42 97 1008.2
20260506105957 44 245 5.0 13.0 0.00 0.49 0.42 97 1008.2
20260506105757 44 236 5.0 13.0 0.00 0.49 0.42 97 1008.2
20260506105553 44 269 5.0 13.0 0.00 0.49 0.42 97 1008.2
20260506105350 44 269 5.0 12.0 0.00 0.49 0.42 97 1008.3
20260506105142 44 235 5.0 12.0 0.00 0.49 0.42 97 1008.2
20260506104933 44 250 5.0 12.0 0.00 0.49 0.42 98 1008.3
20260506104045 44 231 5.0 16.0 0.00 0.49 0.42 98 1008.3
20260506103837 44 238 6.0 16.0 0.00 0.49 0.42 98 1008.3
20260506103627 44 255 7.0 16.0 0.00 0.48 0.41 98 1008.4
20260506103109 44 214 8.0 16.0 0.03 0.48 0.41 98 1008.4
20260506102542 44 215 7.0 15.0 0.03 0.48 0.41 98 1008.2
20260506102341 44 234 7.0 15.0 0.03 0.48 0.41 98 1008.3
20260506102136 44 266 7.0 15.0 0.03 0.48 0.41 98 1008.2
20260506101932 44 241 7.0 14.0 0.03 0.48 0.41 98 1008.2
20260506101728 44 250 7.0 14.0 0.03 0.48 0.41 98 1008.1
20260506101212 44 235 7.0 14.0 0.06 0.48 0.40 98 1008.0
20260506101008 44 226 6.0 13.0 0.07 0.48 0.40 98 1008.2
20260506100805 44 238 6.0 13.0 0.08 0.48 0.40 98 1008.1
20260506100603 44 239 5.0 13.0 0.08 0.48 0.40 98 1008.2
20260506100358 44 280 5.0 11.0 0.08 0.47 0.40 98 1008.0
20260506100154 44 235 5.0 11.0 0.13 0.47 0.40 98 1008.0
20260506095950 44 227 4.0 10.0 0.13 0.47 0.40 98 1007.9
20260506095750 44 243 4.0 10.0 0.11 0.46 0.39 98 1008.0
20260506095237 44 236 5.0 13.0 0.13 0.45 0.38 98 1008.0
20260506095030 44 241 5.0 13.0 0.14 0.44 0.37 98 1007.9
20260506094825 44 237 6.0 13.0 0.18 0.44 0.37 98 1007.8
20260506094616 44 249 6.0 13.0 0.17 0.44 0.37 98 1007.9
20260506093738 44 230 6.0 13.0 0.16 0.41 0.34 98 1007.8
20260506093538 45 236 5.0 10.0 0.13 0.40 0.33 98 1007.8
20260506093334 45 251 5.0 13.0 0.13 0.40 0.33 98 1007.8
20260506093130 45 232 5.0 13.0 0.14 0.40 0.33 98 1007.7
20260506092931 45 259 5.0 13.0 0.18 0.39 0.32 98 1007.7
20260506092723 45 250 5.0 13.0 0.24 0.38 0.32 98 1007.7
20260506092516 45 237 6.0 13.0 0.29 0.37 0.31 98 1007.7
20260506092307 45 244 6.0 13.0 0.14 0.37 0.29 98 1007.6
20260506091741 45 242 5.0 13.0 0.35 0.35 0.28 98 1007.6
20260506091531 45 255 5.0 13.0 0.38 0.33 0.26 98 1007.7
20260506091325 45 223 5.0 11.0 0.49 0.32 0.25 98 1007.6
20260506091121 45 236 4.0 14.0 0.29 0.30 0.24 98 1007.6
20260506090916 45 259 5.0 14.0 0.32 0.29 0.23 98 1007.6
20260506090716 45 239 5.0 14.0 0.32 0.29 0.22 98 1007.6
20260506090203 45 233 6.0 14.0 0.37 0.25 0.18 98 1007.6
20260506085326 45 232 5.0 14.0 0.27 0.21 0.14 97 1007.4
20260506084808 46 252 4.0 10.0 0.33 0.17 0.11 98 1007.3
20260506084602 46 257 4.0 10.0 0.37 0.16 0.09 98 1007.2
20260506084402 46 277 2.0 10.0 0.44 0.15 0.08 98 1007.1
20260506084200 46 229 2.0 8.0 0.25 0.14 0.07 98 1007.2
20260506083952 46 216 2.0 8.0 0.18 0.13 0.06 98 1007.0
20260506083747 46 205 2.0 8.0 0.18 0.12 0.05 98 1007.0
20260506083222 46 216 3.0 8.0 0.11 0.11 0.03 97 1006.8
20260506083012 46 234 3.0 8.0 0.11 0.11 0.03 97 1006.8
20260506082812 46 236 3.0 7.0 0.13 0.10 0.03 97 1006.8
20260506082603 46 241 3.0 7.0 0.14 0.10 0.03 97 1006.7
20260506082355 46 226 3.0 6.0 0.10 0.09 0.02 97 1006.6
20260506081828 46 232 3.0 6.0 0.00 0.08 0.01 97 1006.6
20260506081628 46 190 2.0 6.0 0.00 0.07 0.00 97 1006.5
20260506081427 46 227 3.0 7.0 0.00 0.07 0.00 96 1006.5
20260506081218 46 255 3.0 7.0 0.00 0.07 0.00 96 1006.5
20260506081016 46 229 3.0 7.0 0.00 0.07 0.00 96 1006.6
20260506080807 46 243 3.0 7.0 0.00 0.07 0.00 96 1006.4
20260506080247 46 248 3.0 7.0 0.00 0.07 0.00 96 1006.5
20260506073346 47 117 0.0 0.0 0.00 0.07 0.00 93 1006.2
20260506073140 47 117 0.0 0.0 0.00 0.07 0.00 93 1006.1
20260506072621 46 98 0.0 2.0 0.00 0.07 0.00 93 1006.1
20260506072420 46 89 0.0 2.0 0.00 0.07 0.00 93 1006.1
20260506072222 46 113 1.0 4.0 0.00 0.07 0.00 93 1006.1
20260506072016 46 116 1.0 4.0 0.00 0.07 0.00 93 1006.1
20260506071812 46 126 1.0 4.0 0.00 0.07 0.00 93 1006.1
20260506071612 46 116 2.0 4.0 0.00 0.07 0.00 93 1006.0
20260506071411 46 129 2.0 4.0 0.00 0.07 0.00 93 1006.0
20260506071206 46 138 2.0 4.0 0.00 0.07 0.00 93 1006.0
20260506070307 46 139 2.0 4.0 0.00 0.07 0.00 93 1006.0
20260506070106 46 93 2.0 3.0 0.00 0.07 0.00 93 1006.0